Skip Page Navigation
NASA JPL Caltech
NASA Logo - Jet Propulsion Laboratory + View the NASA Portal
+ Center for Near-Earth Object Studies
JPL Home Earth Solar System Stars & Galaxies Technology
JPL Solar System Dynamics
BODIES ORBITS EPHEMERIDES TOOLS PHYSICAL DATA DISCOVERY FAQ SITE MAP
IMPORTANT: The SSD Announcement email list is now available. Major changes are coming in the near future, including possible hostname and/or URL changes. To be notified of such changes, subscribe to this email list.

Please visit this page for more details.


JPL Small-Body Database Browser
Search: [ help ]  
441069 (2007 RQ58)
Classification: Main-belt Asteroid          SPK-ID: 2441069
Ephemeris | Orbit Diagram | Orbital Elements | Mission Design | Physical Parameters | Discovery Circumstances ]

[ show orbit diagram ]
Orbital Elements at Epoch 2458600.5 (2019-Apr-27.0) TDB
Reference: JPL 11 (heliocentric ecliptic J2000)
 Element Value Uncertainty (1-sigma)   Units 
e .1864258199706583 8.537e-08  
a 2.668850877064086 4.0896e-08 au
q 2.171308163928003 2.1461e-07 au
i 12.95736178607641 8.4086e-06 deg
node 272.6214986784101 3.4802e-05 deg
peri 102.1259681419425 4.2243e-05 deg
M 221.8785955122354 2.5438e-05 deg
tp 2459211.503044295113
(2020-Dec-28.00304430)
0.00012183 TDB
period 1592.519977348811
4.36
3.6604e-05
1.002e-07
d
yr
n .2260568188283072 5.196e-09 deg/d
Q 3.166393590200169 4.852e-08 au
  Orbit Determination Parameters
   # obs. used (total)      146  
   data-arc span      5692 days (15.58 yr)  
   first obs. used      2003-12-03  
   last obs. used      2019-07-04  
   planetary ephem.      DE431  
   SB-pert. ephem.      SB431-N16  
   condition code      0  
   norm. resid. RMS      .59696  
   source      ORB  
   producer      Otto Matic  
   solution date      2019-Sep-24 07:41:37  

Additional Information
 Earth MOID = 1.21617 au 
 Jupiter MOID = 2.45894 au 
 T_jup = 3.321 
[ show covariance matrix ]

Ephemeris | Orbit Diagram | Orbital Elements | Mission Design | Physical Parameters | Discovery Circumstances ]

Physical Parameter Table
Parameter Symbol Value Units Sigma Reference Notes
absolute magnitude H 16.1   n/a MPO440825  

441069 (2007 RQ58)          Discovered 2007-Sep-10 by CSS at Catalina
Reference: Last Updated: 2015-09-02

Alternate Designations
 2007 RQ58 = 2003 XO5 
Ephemeris | Orbit Diagram | Orbital Elements | Mission Design | Physical Parameters | Discovery Circumstances ]
ABOUT SSD CREDITS/AWARDS PRIVACY/COPYRIGHT GLOSSARY LINKS
FirstGov
(server date/time)  
NASA Home Page
Site Manager:   Ryan S. Park
Webmaster  Alan B. Chamberlin